START_TIME,STEP,MOV.,M6,t_acc.,M7,t_acc.,M19,t_acc.,H36,t_acc.
1979-07-15 09:00:27.330 ,0,0,0.,12.0,0.,12.0,0.,12.0,0.,12.0
1979-07-15 09:00:39.330 ,0,0,0.,12.0,0.,12.0,0.,12.0,0.,12.0
1979-07-15 09:00:51.330 ,0,1,0.,12.0,0.,12.0,0.,12.0,0.,12.0
1979-07-15 09:01:03.330 ,0,1,0.,12.0,0.,12.0,0.,12.0,0.,12.0
1979-07-15 09:01:15.330 ,0,0,0.,12.0,0.,12.0,0.,12.0,0.,12.0
1979-07-15 09:01:27.330 ,0,0,0.,12.0,0.,12.0,0.,12.0,0.,12.0
1979-07-15 09:01:39.330 ,1,1,0.,12.0,0.,12.0,0.,12.0,0.,12.0
1979-07-15 09:01:51.330 ,1,1,0.,12.0,0.,12.0,0.,12.0,0.,12.0
1979-07-15 09:02:03.330 ,1,0,0.,12.0,0.,12.0,0.,12.0,0.,12.0
1979-07-15 09:02:15.330 ,1,0,0.,12.0,0.,12.0,0.,12.0,0.,12.0
1979-07-15 09:02:27.330 ,2,1,0.,12.0,0.,12.0,0.,12.0,0.,12.0
1979-07-15 09:02:39.330 ,2,1,0.,12.0,0.,12.0,0.,12.0,0.,12.0
1979-07-15 09:02:51.330 ,2,0,0.,12.0,0.,12.0,0.,12.0,0.,12.0
1979-07-15 09:03:03.330 ,2,0,0.,12.0,0.,12.0,0.,12.0,0.,12.0
1979-07-15 09:03:15.330 ,3,1,0.,12.0,0.,12.0,0.,12.0,0.,12.0
1979-07-15 09:03:27.330 ,3,1,0.,12.0,0.,12.0,0.,12.0,0.,12.0
1979-07-15 09:03:39.330 ,3,0,0.,12.0,0.,12.0,0.,12.0,0.,12.0
1979-07-15 09:03:51.330 ,3,0,0.,12.0,0.,12.0,0.,12.0,0.,12.0
1979-07-15 09:04:03.330 ,4,1,0.,12.0,0.,12.0,0.,12.0,0.,12.0
1979-07-15 09:04:15.330 ,4,1,0.,12.0,0.,12.0,0.,12.0,0.,12.0
1979-07-15 09:04:27.330 ,4,0,0.,12.0,0.,12.0,0.,12.0,0.,12.0
1979-07-15 09:04:39.330 ,4,0,0.,12.0,0.,12.0,0.,12.0,0.,12.0
1979-07-15 09:04:51.330 ,5,1,0.,12.0,0.,12.0,0.,12.0,0.,12.0
1979-07-15 09:05:03.330 ,5,1,0.,12.0,0.,12.0,0.,12.0,0.,12.0
1979-07-15 09:05:15.330 ,5,0,0.,12.0,0.,12.0,0.,12.0,0.,12.0
1979-07-15 09:05:27.330 ,5,0,0.,12.0,0.,12.0,0.,12.0,0.,12.0
1979-07-15 09:05:39.330 ,6,1,0.,12.0,0.,12.0,0.,12.0,0.,12.0
1979-07-15 09:05:51.330 ,6,1,0.,12.0,0.,12.0,0.,12.0,1.,12.0
1979-07-15 09:06:03.330 ,6,0,0.,12.0,0.,12.0,0.,12.0,0.,12.0
1979-07-15 09:06:15.330 ,6,0,0.,12.0,0.,12.0,0.,12.0,0.,12.0
1979-07-15 09:06:27.330 ,7,0,0.,12.0,0.,12.0,0.,12.0,0.,12.0
1979-07-15 09:06:39.330 ,7,0,0.,12.0,0.,12.0,0.,12.0,0.,12.0
1979-07-15 09:06:51.330 ,7,0,0.,12.0,0.,12.0,0.,12.0,0.,12.0
1979-07-15 09:07:03.330 ,7,0,0.,12.0,0.,12.0,0.,12.0,0.,12.0
1979-07-15 09:07:15.330 ,4,1,0.,12.0,0.,12.0,0.,12.0,0.,12.0
1979-07-15 09:07:27.330 ,4,1,0.,12.0,0.,12.0,0.,12.0,0.,12.0
1979-07-15 09:07:39.330 ,0,1,0.,12.0,0.,12.0,0.,12.0,0.,12.0
1979-07-15 09:07:51.330 ,0,1,0.,12.0,0.,12.0,0.,12.0,0.,12.0
1979-07-15 09:08:03.330 ,3,1,1.,12.0,0.,12.0,0.,12.0,0.,12.0
1979-07-15 09:08:15.330 ,3,1,0.,12.0,0.,12.0,0.,12.0,0.,12.0
1979-07-15 09:08:27.330 ,7,1,0.,12.0,0.,12.0,0.,12.0,0.,12.0
1979-07-15 09:08:39.330 ,7,1,0.,12.0,0.,12.0,0.,12.0,0.,12.0
1979-07-15 09:08:51.330 ,4,1,0.,12.0,0.,12.0,0.,12.0,0.,12.0
1979-07-15 09:09:03.330 ,4,1,0.,12.0,0.,12.0,0.,12.0,0.,12.0
1979-07-15 09:09:15.330 ,0,1,0.,12.0,0.,12.0,0.,12.0,0.,12.0
1979-07-15 09:09:27.330 ,0,1,0.,12.0,0.,12.0,0.,12.0,0.,12.0
1979-07-15 09:09:39.330 ,3,1,0.,12.0,0.,12.0,0.,12.0,0.,12.0
1979-07-15 09:09:51.330 ,3,1,0.,12.0,0.,12.0,0.,12.0,0.,12.0
1979-07-15 09:10:03.330 ,7,1,0.,12.0,0.,12.0,0.,12.0,0.,12.0
1979-07-15 09:10:15.330 ,7,1,0.,12.0,0.,12.0,0.,12.0,0.,12.0
1979-07-15 09:10:27.330 ,4,1,0.,12.0,0.,12.0,0.,12.0,0.,12.0
1979-07-15 09:10:39.330 ,4,1,0.,12.0,0.,12.0,0.,12.0,0.,12.0
1979-07-15 09:10:51.330 ,0,1,0.,12.0,0.,12.0,0.,12.0,0.,12.0
1979-07-15 09:11:03.330 ,0,1,0.,12.0,0.,12.0,0.,12.0,0.,12.0
1979-07-15 09:11:15.330 ,3,1,0.,12.0,0.,12.0,0.,12.0,0.,12.0
1979-07-15 09:11:27.330 ,3,1,1.,12.0,0.,12.0,0.,12.0,0.,12.0
1979-07-15 09:11:39.330 ,7,1,0.,12.0,0.,12.0,0.,12.0,0.,12.0
1979-07-15 09:11:51.330 ,7,1,0.,12.0,0.,12.0,0.,12.0,0.,12.0
1979-07-15 09:12:03.330 ,4,1,0.,12.0,0.,12.0,0.,12.0,0.,12.0
1979-07-15 09:12:15.330 ,4,1,0.,12.0,0.,12.0,0.,12.0,0.,12.0
1979-07-15 09:12:27.330 ,0,1,0.,12.0,0.,12.0,0.,12.0,0.,12.0
1979-07-15 09:12:39.330 ,0,1,0.,12.0,0.,12.0,0.,12.0,0.,12.0
1979-07-15 09:12:51.330 ,3,1,0.,12.0,0.,12.0,0.,12.0,0.,12.0
1979-07-15 09:13:03.330 ,3,1,0.,12.0,0.,12.0,0.,12.0,0.,12.0
1979-07-15 09:13:15.330 ,7,1,1.,12.0,0.,12.0,0.,12.0,0.,12.0
1979-07-15 09:13:27.330 ,7,1,0.,12.0,0.,12.0,0.,12.0,0.,12.0
1979-07-15 09:13:39.330 ,4,1,0.,12.0,0.,12.0,0.,12.0,0.,12.0
1979-07-15 09:13:51.330 ,4,1,0.,12.0,0.,12.0,0.,12.0,0.,12.0
1979-07-15 09:14:03.330 ,0,1,0.,12.0,0.,12.0,0.,12.0,0.,12.0
1979-07-15 09:14:15.330 ,0,1,0.,12.0,0.,12.0,0.,12.0,0.,12.0
1979-07-15 09:14:27.330 ,3,1,0.,12.0,0.,12.0,0.,12.0,0.,12.0
1979-07-15 09:14:39.330 ,3,1,0.,12.0,0.,12.0,0.,12.0,0.,12.0
1979-07-15 09:14:51.330 ,7,1,0.,12.0,0.,12.0,0.,12.0,0.,12.0
1979-07-15 09:15:03.330 ,7,1,0.,12.0,0.,12.0,0.,12.0,0.,12.0
1979-07-15 09:15:15.330 ,4,1,0.,12.0,0.,12.0,0.,12.0,0.,12.0
1979-07-15 09:15:27.330 ,4,1,0.,12.0,0.,12.0,0.,12.0,0.,12.0
1979-07-15 09:15:39.330 ,0,1,0.,12.0,0.,12.0,0.,12.0,0.,12.0
1979-07-15 09:15:51.330 ,0,1,0.,12.0,0.,12.0,0.,12.0,0.,12.0
1979-07-15 09:16:03.330 ,3,1,0.,12.0,0.,12.0,0.,12.0,0.,12.0
1979-07-15 09:16:15.330 ,3,1,0.,12.0,0.,12.0,0.,12.0,0.,12.0
1979-07-15 09:16:27.330 ,7,1,0.,12.0,0.,12.0,0.,12.0,0.,12.0
1979-07-15 09:16:39.330 ,7,1,0.,12.0,0.,12.0,0.,12.0,0.,12.0
1979-07-15 09:16:51.330 ,4,1,0.,12.0,0.,12.0,0.,12.0,0.,12.0
1979-07-15 09:17:03.330 ,4,1,0.,12.0,0.,12.0,0.,12.0,0.,12.0
1979-07-15 09:17:15.330 ,0,1,0.,12.0,0.,12.0,0.,12.0,0.,12.0
1979-07-15 09:17:27.330 ,0,1,0.,12.0,0.,12.0,0.,12.0,0.,12.0
1979-07-15 09:17:39.330 ,0,0,0.,12.0,0.,12.0,0.,12.0,0.,12.0
1979-07-15 09:17:51.330 ,0,0,0.,12.0,0.,12.0,0.,12.0,0.,12.0
1979-07-15 09:18:03.330 ,0,0,0.,12.0,0.,12.0,0.,12.0,0.,12.0
1979-07-15 09:18:15.330 ,0,0,0.,12.0,0.,12.0,0.,12.0,0.,12.0
1979-07-15 09:18:27.330 ,5,1,0.,12.0,0.,12.0,0.,12.0,0.,12.0
1979-07-15 09:18:39.330 ,5,1,0.,12.0,0.,12.0,0.,12.0,0.,12.0
1979-07-15 09:18:51.330 ,5,0,0.,12.0,0.,12.0,0.,12.0,0.,12.0
1979-07-15 09:19:03.330 ,5,0,0.,12.0,0.,12.0,0.,12.0,0.,12.0
1979-07-15 09:19:15.330 ,4,1,1.,12.0,0.,12.0,0.,12.0,0.,12.0
1979-07-15 09:19:27.330 ,4,1,0.,12.0,0.,12.0,0.,12.0,0.,12.0
1979-07-15 09:19:39.330 ,4,0,0.,12.0,0.,12.0,0.,12.0,0.,12.0
1979-07-15 09:19:51.330 ,4,0,0.,12.0,0.,12.0,0.,12.0,0.,12.0
1979-07-15 09:20:03.330 ,3,1,0.,12.0,0.,12.0,0.,12.0,0.,12.0
1979-07-15 09:20:15.330 ,3,1,0.,12.0,0.,12.0,0.,12.0,0.,12.0
1979-07-15 09:20:27.330 ,3,0,0.,12.0,0.,12.0,0.,12.0,0.,12.0
1979-07-15 09:20:39.330 ,3,0,0.,12.0,0.,12.0,0.,12.0,0.,12.0
1979-07-15 09:20:51.330 ,2,1,0.,12.0,0.,12.0,0.,12.0,0.,12.0
1979-07-15 09:21:03.330 ,2,1,0.,12.0,0.,12.0,0.,12.0,0.,12.0
1979-07-15 09:21:15.330 ,2,0,0.,12.0,0.,12.0,0.,12.0,0.,12.0
1979-07-15 09:21:27.330 ,2,0,0.,12.0,0.,12.0,0.,12.0,0.,12.0
1979-07-15 09:21:39.330 ,1,1,0.,12.0,0.,12.0,0.,12.0,0.,12.0
1979-07-15 09:21:51.330 ,1,1,0.,12.0,0.,12.0,0.,12.0,0.,12.0
1979-07-15 09:22:03.330 ,1,0,0.,12.0,0.,12.0,0.,12.0,0.,12.0
1979-07-15 09:22:15.330 ,1,0,0.,12.0,0.,12.0,0.,12.0,0.,12.0
1979-07-15 09:22:27.330 ,0,1,0.,12.0,0.,12.0,0.,12.0,0.,12.0
1979-07-15 09:22:39.330 ,0,1,0.,12.0,0.,12.0,0.,12.0,0.,12.0
1979-07-15 09:22:51.330 ,0,0,0.,12.0,0.,12.0,0.,12.0,0.,12.0
1979-07-15 09:23:03.330 ,0,0,0.,12.0,0.,12.0,0.,12.0,0.,12.0
1979-07-15 09:23:15.330 ,0,1,0.,12.0,0.,12.0,0.,12.0,0.,12.0
1979-07-15 09:23:27.330 ,0,1,0.,12.0,0.,12.0,0.,12.0,0.,12.0
1979-07-15 09:23:39.330 ,0,0,0.,12.0,0.,12.0,0.,12.0,0.,12.0
1979-07-15 09:23:51.330 ,0,0,0.,12.0,0.,12.0,0.,12.0,0.,12.0
1979-07-15 09:24:03.330 ,1,1,0.,12.0,0.,12.0,0.,12.0,0.,12.0
1979-07-15 09:24:15.330 ,1,1,0.,12.0,0.,12.0,0.,12.0,0.,12.0
1979-07-15 09:24:27.330 ,1,0,1.,12.0,0.,12.0,0.,12.0,0.,12.0
1979-07-15 09:24:39.330 ,1,0,0.,12.0,0.,12.0,0.,12.0,0.,12.0
1979-07-15 09:24:51.330 ,2,1,0.,12.0,0.,12.0,0.,12.0,0.,12.0
1979-07-15 09:25:03.330 ,2,1,0.,12.0,0.,12.0,0.,12.0,0.,12.0
1979-07-15 09:25:15.330 ,2,0,0.,12.0,0.,12.0,0.,12.0,0.,12.0
1979-07-15 09:25:27.330 ,2,0,0.,12.0,0.,12.0,0.,12.0,0.,12.0
1979-07-15 09:25:39.330 ,3,1,0.,12.0,0.,12.0,0.,12.0,0.,12.0
1979-07-15 09:25:51.330 ,3,1,0.,12.0,0.,12.0,0.,12.0,0.,12.0
1979-07-15 09:26:03.330 ,3,0,0.,12.0,0.,12.0,0.,12.0,0.,12.0
1979-07-15 09:26:15.330 ,3,0,0.,12.0,0.,12.0,0.,12.0,0.,12.0
1979-07-15 09:26:27.330 ,4,1,0.,12.0,0.,12.0,0.,12.0,0.,12.0
1979-07-15 09:26:39.330 ,4,1,0.,12.0,0.,12.0,0.,12.0,0.,12.0
1979-07-15 09:26:51.330 ,4,0,0.,12.0,0.,12.0,0.,12.0,0.,12.0
1979-07-15 09:27:03.330 ,4,0,0.,12.0,0.,12.0,0.,12.0,0.,12.0
1979-07-15 09:27:15.330 ,5,1,0.,12.0,0.,12.0,0.,12.0,0.,12.0
1979-07-15 09:27:27.330 ,5,1,0.,12.0,0.,12.0,0.,12.0,0.,12.0
1979-07-15 09:27:39.330 ,5,0,0.,12.0,0.,12.0,0.,12.0,0.,12.0
1979-07-15 09:27:51.330 ,5,0,0.,12.0,0.,12.0,0.,12.0,0.,12.0
1979-07-15 09:28:03.330 ,6,1,0.,12.0,0.,12.0,0.,12.0,0.,12.0
1979-07-15 09:28:15.330 ,6,1,0.,12.0,0.,12.0,0.,12.0,0.,12.0
1979-07-15 09:28:27.330 ,6,0,0.,12.0,0.,12.0,0.,12.0,0.,12.0
1979-07-15 09:28:39.330 ,6,0,1.,12.0,0.,12.0,0.,12.0,0.,12.0
1979-07-15 09:28:51.330 ,7,1,0.,12.0,0.,12.0,0.,12.0,0.,12.0
1979-07-15 09:29:03.330 ,7,1,0.,12.0,0.,12.0,0.,12.0,0.,12.0
1979-07-15 09:29:15.330 ,7,0,0.,12.0,0.,12.0,0.,12.0,0.,12.0
1979-07-15 09:29:27.330 ,7,0,0.,12.0,0.,12.0,0.,12.0,0.,12.0
1979-07-15 09:29:39.330 ,7,1,0.,12.0,0.,12.0,0.,12.0,0.,12.0
1979-07-15 09:29:51.330 ,7,1,0.,12.0,0.,12.0,0.,12.0,0.,12.0
1979-07-15 09:30:03.330 ,7,0,0.,12.0,0.,12.0,0.,12.0,0.,12.0
1979-07-15 09:30:15.330 ,7,0,0.,12.0,0.,12.0,0.,12.0,0.,12.0
1979-07-15 09:30:27.330 ,6,1,0.,12.0,0.,12.0,0.,12.0,0.,12.0
1979-07-15 09:30:39.330 ,6,1,1.,12.0,0.,12.0,0.,12.0,0.,12.0
1979-07-15 09:30:51.330 ,6,0,0.,12.0,0.,12.0,0.,12.0,0.,12.0
1979-07-15 09:31:03.330 ,6,0,0.,12.0,0.,12.0,0.,12.0,0.,12.0
1979-07-15 09:31:15.330 ,5,1,0.,12.0,0.,12.0,0.,12.0,0.,12.0
1979-07-15 09:31:27.330 ,5,1,0.,12.0,0.,12.0,0.,12.0,0.,12.0
1979-07-15 09:31:39.330 ,5,0,0.,12.0,0.,12.0,0.,12.0,0.,12.0
1979-07-15 09:31:51.330 ,5,0,0.,12.0,0.,12.0,0.,12.0,0.,12.0
1979-07-15 09:32:03.330 ,4,1,0.,12.0,0.,12.0,0.,12.0,0.,12.0
1979-07-15 09:32:15.330 ,4,1,0.,12.0,0.,12.0,0.,12.0,0.,12.0
1979-07-15 09:32:27.330 ,4,0,0.,12.0,0.,12.0,0.,12.0,0.,12.0
1979-07-15 09:32:39.330 ,4,0,0.,12.0,0.,12.0,0.,12.0,0.,12.0
1979-07-15 09:32:51.330 ,3,1,0.,12.0,0.,12.0,0.,12.0,0.,12.0
1979-07-15 09:33:03.330 ,3,1,0.,12.0,0.,12.0,0.,12.0,0.,12.0
1979-07-15 09:33:15.330 ,3,0,0.,12.0,0.,12.0,0.,12.0,0.,12.0
1979-07-15 09:33:27.330 ,3,0,0.,12.0,0.,12.0,0.,12.0,0.,12.0
1979-07-15 09:33:39.330 ,2,1,0.,12.0,0.,12.0,0.,12.0,0.,12.0
1979-07-15 09:33:51.330 ,2,1,0.,12.0,0.,12.0,0.,12.0,0.,12.0
1979-07-15 09:34:03.330 ,2,0,0.,12.0,0.,12.0,0.,12.0,0.,12.0
1979-07-15 09:34:15.330 ,2,0,0.,12.0,0.,12.0,0.,12.0,0.,12.0
1979-07-15 09:34:27.330 ,1,1,0.,12.0,0.,12.0,0.,12.0,0.,12.0
1979-07-15 09:34:39.330 ,1,1,0.,12.0,0.,12.0,0.,12.0,0.,12.0
1979-07-15 09:34:51.330 ,1,0,0.,12.0,0.,12.0,0.,12.0,0.,12.0
1979-07-15 09:35:03.330 ,1,0,0.,12.0,0.,12.0,0.,12.0,0.,12.0
1979-07-15 09:35:15.330 ,0,1,0.,12.0,0.,12.0,0.,12.0,0.,12.0
1979-07-15 09:35:27.330 ,0,1,0.,12.0,0.,12.0,0.,12.0,0.,12.0
1979-07-15 09:35:39.330 ,0,0,0.,12.0,0.,12.0,0.,12.0,0.,12.0
1979-07-15 09:35:51.330 ,0,0,0.,12.0,0.,12.0,0.,12.0,0.,12.0
1979-07-15 09:36:03.330 ,0,1,0.,12.0,0.,12.0,0.,12.0,0.,12.0
1979-07-15 09:36:15.330 ,0,1,0.,12.0,0.,12.0,0.,12.0,0.,12.0
1979-07-15 09:36:27.330 ,0,0,0.,12.0,0.,12.0,0.,12.0,0.,12.0
1979-07-15 09:36:39.330 ,0,0,0.,12.0,0.,12.0,0.,12.0,0.,12.0
1979-07-15 09:36:51.330 ,1,1,0.,12.0,0.,12.0,0.,12.0,0.,12.0
1979-07-15 09:37:03.330 ,1,1,0.,12.0,0.,12.0,0.,12.0,0.,12.0
1979-07-15 09:37:15.330 ,1,0,0.,12.0,0.,12.0,0.,12.0,0.,12.0
1979-07-15 09:37:27.330 ,1,0,0.,12.0,0.,12.0,0.,12.0,0.,12.0
1979-07-15 09:37:39.330 ,2,1,0.,12.0,0.,12.0,0.,12.0,0.,12.0
1979-07-15 09:37:51.330 ,2,1,0.,12.0,0.,12.0,0.,12.0,0.,12.0
1979-07-15 09:38:03.330 ,2,0,0.,12.0,0.,12.0,0.,12.0,0.,12.0
1979-07-15 09:38:15.330 ,2,0,0.,12.0,0.,12.0,0.,12.0,0.,12.0
1979-07-15 09:38:27.330 ,3,1,0.,12.0,0.,12.0,0.,12.0,0.,12.0
1979-07-15 09:38:39.330 ,3,1,0.,12.0,0.,12.0,0.,12.0,0.,12.0
1979-07-15 09:38:51.330 ,3,0,0.,12.0,0.,12.0,0.,12.0,0.,12.0
1979-07-15 09:39:03.330 ,3,0,0.,12.0,0.,12.0,0.,12.0,0.,12.0
1979-07-15 09:39:15.330 ,4,1,0.,12.0,0.,12.0,0.,12.0,0.,12.0
1979-07-15 09:39:27.330 ,4,1,1.,12.0,0.,12.0,0.,12.0,0.,12.0
1979-07-15 09:39:39.330 ,4,0,0.,12.0,0.,12.0,0.,12.0,0.,12.0
1979-07-15 09:39:51.330 ,4,0,0.,12.0,0.,12.0,0.,12.0,0.,12.0
1979-07-15 09:40:03.330 ,5,1,1.,12.0,0.,12.0,0.,12.0,0.,12.0
1979-07-15 09:40:15.330 ,5,1,0.,12.0,0.,12.0,0.,12.0,0.,12.0
1979-07-15 09:40:27.330 ,5,0,0.,12.0,0.,12.0,0.,12.0,0.,12.0
1979-07-15 09:40:39.330 ,5,0,0.,12.0,0.,12.0,0.,12.0,0.,12.0
1979-07-15 09:40:51.330 ,6,1,0.,12.0,0.,12.0,0.,12.0,0.,12.0
1979-07-15 09:41:03.330 ,6,1,0.,12.0,0.,12.0,0.,12.0,0.,12.0
1979-07-15 09:41:15.330 ,6,0,0.,12.0,0.,12.0,0.,12.0,0.,12.0
1979-07-15 09:41:27.330 ,6,0,0.,12.0,0.,12.0,0.,12.0,0.,12.0
1979-07-15 09:41:39.330 ,7,1,0.,12.0,0.,12.0,0.,12.0,0.,12.0
1979-07-15 09:41:51.330 ,7,1,0.,12.0,0.,12.0,0.,12.0,0.,12.0
1979-07-15 09:42:03.330 ,7,0,0.,12.0,0.,12.0,0.,12.0,0.,12.0
1979-07-15 09:42:15.330 ,7,0,0.,12.0,0.,12.0,0.,12.0,0.,12.0
1979-07-15 09:42:27.330 ,7,1,0.,12.0,0.,12.0,0.,12.0,0.,12.0
1979-07-15 09:42:39.330 ,7,1,0.,12.0,0.,12.0,0.,12.0,0.,12.0
1979-07-15 09:42:51.330 ,7,0,0.,12.0,0.,12.0,0.,12.0,0.,12.0
1979-07-15 09:43:03.330 ,7,0,0.,12.0,0.,12.0,0.,12.0,0.,12.0
1979-07-15 09:43:15.330 ,6,1,0.,12.0,0.,12.0,0.,12.0,0.,12.0
1979-07-15 09:43:27.330 ,6,1,0.,12.0,0.,12.0,0.,12.0,0.,12.0
1979-07-15 09:43:39.330 ,6,0,0.,12.0,0.,12.0,0.,12.0,0.,12.0
1979-07-15 09:43:51.330 ,6,0,0.,12.0,0.,12.0,0.,12.0,0.,12.0
1979-07-15 09:44:03.330 ,5,1,0.,12.0,0.,12.0,0.,12.0,0.,12.0
1979-07-15 09:44:15.330 ,5,1,0.,12.0,0.,12.0,0.,12.0,0.,12.0
1979-07-15 09:44:27.330 ,5,0,0.,12.0,0.,12.0,0.,12.0,0.,12.0
1979-07-15 09:44:39.330 ,5,0,0.,12.0,0.,12.0,0.,12.0,0.,12.0
1979-07-15 09:44:51.330 ,4,1,0.,12.0,0.,12.0,0.,12.0,0.,12.0
1979-07-15 09:45:03.330 ,4,1,0.,12.0,0.,12.0,0.,12.0,0.,12.0
1979-07-15 09:45:15.330 ,4,0,0.,12.0,0.,12.0,0.,12.0,0.,12.0
1979-07-15 09:45:27.330 ,4,0,0.,12.0,0.,12.0,0.,12.0,0.,12.0
1979-07-15 09:45:39.330 ,3,1,0.,12.0,0.,12.0,0.,12.0,0.,12.0
1979-07-15 09:45:51.330 ,3,1,0.,12.0,0.,12.0,0.,12.0,0.,12.0
1979-07-15 09:46:03.330 ,3,0,0.,12.0,0.,12.0,0.,12.0,0.,12.0
1979-07-15 09:46:15.330 ,3,0,0.,12.0,0.,12.0,0.,12.0,0.,12.0
1979-07-15 09:46:27.330 ,2,1,0.,12.0,0.,12.0,0.,12.0,0.,12.0
1979-07-15 09:46:39.330 ,2,1,0.,12.0,0.,12.0,0.,12.0,0.,12.0
1979-07-15 09:46:51.330 ,2,0,0.,12.0,0.,12.0,0.,12.0,0.,12.0
1979-07-15 09:47:03.330 ,2,0,0.,12.0,0.,12.0,0.,12.0,0.,12.0
1979-07-15 09:47:15.330 ,1,1,0.,12.0,0.,12.0,0.,12.0,0.,12.0
1979-07-15 09:47:27.330 ,1,1,0.,12.0,0.,12.0,0.,12.0,0.,12.0
1979-07-15 09:47:39.330 ,1,0,0.,12.0,0.,12.0,0.,12.0,0.,12.0
1979-07-15 09:47:51.330 ,1,0,0.,12.0,0.,12.0,0.,12.0,0.,12.0
1979-07-15 09:48:03.330 ,0,1,0.,12.0,0.,12.0,0.,12.0,0.,12.0
1979-07-15 09:48:15.330 ,0,1,0.,12.0,0.,12.0,0.,12.0,0.,12.0
1979-07-15 09:48:27.330 ,0,0,0.,12.0,0.,12.0,0.,12.0,0.,12.0
1979-07-15 09:48:39.330 ,0,0,0.,12.0,0.,12.0,0.,12.0,0.,12.0
1979-07-15 09:48:51.330 ,0,1,0.,12.0,0.,12.0,0.,12.0,0.,12.0
1979-07-15 09:49:03.330 ,0,1,0.,12.0,0.,12.0,0.,12.0,0.,12.0
1979-07-15 09:49:15.330 ,0,0,0.,12.0,0.,12.0,0.,12.0,0.,12.0
1979-07-15 09:49:27.330 ,0,0,0.,12.0,0.,12.0,0.,12.0,0.,12.0
1979-07-15 09:49:39.330 ,1,1,0.,12.0,0.,12.0,0.,12.0,0.,12.0
1979-07-15 09:49:51.330 ,1,1,0.,12.0,0.,12.0,0.,12.0,0.,12.0
1979-07-15 09:50:03.330 ,1,0,0.,12.0,0.,12.0,0.,12.0,0.,12.0
1979-07-15 09:50:15.330 ,1,0,0.,12.0,0.,12.0,0.,12.0,0.,12.0
1979-07-15 09:50:27.330 ,2,1,0.,12.0,0.,12.0,0.,12.0,0.,12.0
1979-07-15 09:50:39.330 ,2,1,0.,12.0,0.,12.0,0.,12.0,0.,12.0
1979-07-15 09:50:51.330 ,2,0,0.,12.0,0.,12.0,0.,12.0,0.,12.0
1979-07-15 09:51:03.330 ,2,0,0.,12.0,0.,12.0,0.,12.0,0.,12.0
1979-07-15 09:51:15.330 ,3,1,0.,12.0,0.,12.0,0.,12.0,0.,12.0
1979-07-15 09:51:27.330 ,3,1,0.,12.0,0.,12.0,0.,12.0,0.,12.0
1979-07-15 09:51:39.330 ,3,0,0.,12.0,0.,12.0,0.,12.0,0.,12.0
1979-07-15 09:51:51.330 ,3,0,0.,12.0,0.,12.0,0.,12.0,0.,12.0
1979-07-15 09:52:03.330 ,4,1,0.,12.0,0.,12.0,0.,12.0,0.,12.0
1979-07-15 09:52:15.330 ,4,1,0.,12.0,0.,12.0,0.,12.0,0.,12.0
1979-07-15 09:52:27.330 ,4,0,0.,12.0,0.,12.0,0.,12.0,0.,12.0
1979-07-15 09:52:39.330 ,4,0,0.,12.0,0.,12.0,0.,12.0,0.,12.0
1979-07-15 09:52:51.330 ,5,1,0.,12.0,0.,12.0,0.,12.0,0.,12.0
1979-07-15 09:53:03.330 ,5,1,1.,12.0,0.,12.0,0.,12.0,0.,12.0
1979-07-15 09:53:15.330 ,5,0,0.,12.0,0.,12.0,0.,12.0,0.,12.0
1979-07-15 09:53:27.330 ,5,0,0.,12.0,0.,12.0,0.,12.0,0.,12.0
1979-07-15 09:53:39.330 ,6,1,0.,12.0,0.,12.0,0.,12.0,0.,12.0
1979-07-15 09:53:51.330 ,6,1,0.,12.0,0.,12.0,0.,12.0,0.,12.0
1979-07-15 09:54:03.330 ,6,0,0.,12.0,0.,12.0,0.,12.0,0.,12.0
1979-07-15 09:54:15.330 ,6,0,1.,12.0,0.,12.0,0.,12.0,0.,12.0
1979-07-15 09:54:27.330 ,7,0,0.,12.0,0.,12.0,0.,12.0,0.,12.0
1979-07-15 09:54:39.330 ,7,0,0.,12.0,0.,12.0,0.,12.0,0.,12.0
1979-07-15 09:54:51.330 ,7,0,0.,12.0,0.,12.0,0.,12.0,0.,12.0
1979-07-15 09:55:03.330 ,7,0,0.,12.0,0.,12.0,0.,12.0,0.,12.0
1979-07-15 09:55:15.330 ,4,1,0.,12.0,0.,12.0,0.,12.0,0.,12.0
1979-07-15 09:55:27.330 ,4,1,0.,12.0,0.,12.0,0.,12.0,0.,12.0
1979-07-15 09:55:39.330 ,0,1,0.,12.0,0.,12.0,0.,12.0,0.,12.0
1979-07-15 09:55:51.330 ,0,1,0.,12.0,0.,12.0,0.,12.0,0.,12.0
1979-07-15 09:56:03.330 ,3,1,0.,12.0,0.,12.0,0.,12.0,0.,12.0
1979-07-15 09:56:15.330 ,3,1,0.,12.0,0.,12.0,0.,12.0,0.,12.0
1979-07-15 09:56:27.330 ,7,1,0.,12.0,0.,12.0,0.,12.0,0.,12.0
1979-07-15 09:56:39.330 ,7,1,0.,12.0,0.,12.0,0.,12.0,0.,12.0
1979-07-15 09:56:51.330 ,4,1,0.,12.0,0.,12.0,0.,12.0,0.,12.0
1979-07-15 09:57:03.330 ,4,1,0.,12.0,0.,12.0,0.,12.0,0.,12.0
1979-07-15 09:57:15.330 ,0,1,0.,12.0,0.,12.0,0.,12.0,0.,12.0
1979-07-15 09:57:27.330 ,0,1,0.,12.0,0.,12.0,0.,12.0,0.,12.0
1979-07-15 09:57:39.330 ,3,1,0.,12.0,0.,12.0,0.,12.0,0.,12.0
1979-07-15 09:57:51.330 ,3,1,0.,12.0,0.,12.0,0.,12.0,0.,12.0
1979-07-15 09:58:03.330 ,7,1,0.,12.0,0.,12.0,0.,12.0,1.,12.0
1979-07-15 09:58:15.330 ,7,1,0.,12.0,0.,12.0,0.,12.0,0.,12.0
1979-07-15 09:58:27.330 ,4,1,0.,12.0,0.,12.0,0.,12.0,0.,12.0
1979-07-15 09:58:39.330 ,4,1,0.,12.0,0.,12.0,0.,12.0,0.,12.0
1979-07-15 09:58:51.330 ,0,1,0.,12.0,0.,12.0,0.,12.0,0.,12.0
1979-07-15 09:59:03.330 ,0,1,0.,12.0,0.,12.0,0.,12.0,0.,12.0
1979-07-15 09:59:15.330 ,3,1,0.,12.0,0.,12.0,0.,12.0,0.,12.0
1979-07-15 09:59:27.330 ,3,1,0.,12.0,0.,12.0,0.,12.0,0.,12.0
1979-07-15 09:59:39.330 ,7,1,0.,12.0,0.,12.0,0.,12.0,0.,12.0
1979-07-15 09:59:51.330 ,7,1,0.,12.0,0.,12.0,0.,12.0,0.,12.0
1979-07-15 10:00:03.330 ,4,1,0.,12.0,0.,12.0,0.,12.0,0.,12.0
1979-07-15 10:00:15.330 ,4,1,1.,12.0,0.,12.0,0.,12.0,0.,12.0
1979-07-15 10:00:27.330 ,0,1,0.,12.0,0.,12.0,0.,12.0,0.,12.0
1979-07-15 10:00:39.330 ,0,1,0.,12.0,0.,12.0,0.,12.0,0.,12.0
1979-07-15 10:00:51.330 ,3,1,0.,12.0,0.,12.0,0.,12.0,0.,12.0
1979-07-15 10:01:03.330 ,3,1,0.,12.0,0.,12.0,0.,12.0,0.,12.0
1979-07-15 10:01:15.330 ,7,1,0.,12.0,0.,12.0,0.,12.0,0.,12.0
1979-07-15 10:01:27.330 ,7,1,0.,12.0,0.,12.0,0.,12.0,0.,12.0
1979-07-15 10:01:39.330 ,4,1,0.,12.0,0.,12.0,0.,12.0,0.,12.0
1979-07-15 10:01:51.330 ,4,1,0.,12.0,0.,12.0,0.,12.0,0.,12.0
1979-07-15 10:02:03.330 ,0,1,0.,12.0,0.,12.0,0.,12.0,0.,12.0
1979-07-15 10:02:15.330 ,0,1,2.,12.0,0.,12.0,0.,12.0,0.,12.0
1979-07-15 10:02:27.330 ,3,1,0.,12.0,0.,12.0,0.,12.0,0.,12.0
1979-07-15 10:02:39.330 ,3,1,0.,12.0,0.,12.0,0.,12.0,0.,12.0
1979-07-15 10:02:51.330 ,7,1,0.,12.0,0.,12.0,0.,12.0,0.,12.0
1979-07-15 10:03:03.330 ,7,1,0.,12.0,0.,12.0,0.,12.0,0.,12.0
1979-07-15 10:03:15.330 ,4,1,0.,12.0,0.,12.0,0.,12.0,0.,12.0
1979-07-15 10:03:27.330 ,4,1,0.,12.0,0.,12.0,0.,12.0,0.,12.0
1979-07-15 10:03:39.330 ,0,1,0.,12.0,0.,12.0,0.,12.0,0.,12.0
1979-07-15 10:03:51.330 ,0,1,0.,12.0,0.,12.0,0.,12.0,0.,12.0
1979-07-15 10:04:03.330 ,3,1,0.,12.0,0.,12.0,0.,12.0,0.,12.0
1979-07-15 10:04:15.330 ,3,1,0.,12.0,0.,12.0,0.,12.0,0.,12.0
1979-07-15 10:04:27.330 ,7,1,1.,12.0,0.,12.0,0.,12.0,0.,12.0
1979-07-15 10:04:39.330 ,7,1,0.,12.0,0.,12.0,0.,12.0,0.,12.0
1979-07-15 10:04:51.330 ,4,1,0.,12.0,0.,12.0,0.,12.0,0.,12.0
1979-07-15 10:05:03.330 ,4,1,0.,12.0,0.,12.0,0.,12.0,0.,12.0
1979-07-15 10:05:15.330 ,0,1,0.,12.0,0.,12.0,0.,12.0,0.,12.0
1979-07-15 10:05:27.330 ,0,1,0.,12.0,0.,12.0,0.,12.0,0.,12.0
1979-07-15 10:05:39.330 ,0,0,0.,12.0,0.,12.0,0.,12.0,0.,12.0
1979-07-15 10:05:51.330 ,0,0,0.,12.0,0.,12.0,0.,12.0,0.,12.0
1979-07-15 10:06:03.330 ,0,0,0.,12.0,0.,12.0,0.,12.0,0.,12.0
1979-07-15 10:06:15.330 ,0,0,0.,12.0,0.,12.0,0.,12.0,0.,12.0
1979-07-15 10:06:27.330 ,5,1,0.,12.0,0.,12.0,0.,12.0,0.,12.0
1979-07-15 10:06:39.330 ,5,1,1.,12.0,0.,12.0,0.,12.0,0.,12.0
1979-07-15 10:06:51.330 ,5,0,0.,12.0,0.,12.0,0.,12.0,0.,12.0
1979-07-15 10:07:03.330 ,5,0,0.,12.0,0.,12.0,0.,12.0,0.,12.0
1979-07-15 10:07:15.330 ,4,1,0.,12.0,0.,12.0,0.,12.0,0.,12.0
1979-07-15 10:07:27.330 ,4,1,0.,12.0,0.,12.0,0.,12.0,0.,12.0
1979-07-15 10:07:39.330 ,4,0,0.,12.0,0.,12.0,0.,12.0,0.,12.0
1979-07-15 10:07:51.330 ,4,0,0.,12.0,0.,12.0,0.,12.0,0.,12.0
1979-07-15 10:08:03.330 ,3,1,1.,12.0,0.,12.0,0.,12.0,0.,12.0
1979-07-15 10:08:15.330 ,3,1,0.,12.0,0.,12.0,0.,12.0,0.,12.0
1979-07-15 10:08:27.330 ,3,0,0.,12.0,0.,12.0,0.,12.0,0.,12.0
1979-07-15 10:08:39.330 ,3,0,0.,12.0,0.,12.0,0.,12.0,0.,12.0
1979-07-15 10:08:51.330 ,2,1,0.,12.0,0.,12.0,0.,12.0,0.,12.0
1979-07-15 10:09:03.330 ,2,1,0.,12.0,0.,12.0,0.,12.0,0.,12.0
1979-07-15 10:09:15.330 ,2,0,0.,12.0,0.,12.0,0.,12.0,0.,12.0
1979-07-15 10:09:27.330 ,2,0,0.,12.0,0.,12.0,0.,12.0,0.,12.0
1979-07-15 10:09:39.330 ,1,1,0.,12.0,0.,12.0,0.,12.0,0.,12.0
1979-07-15 10:09:51.330 ,1,1,0.,12.0,0.,12.0,0.,12.0,0.,12.0
1979-07-15 10:10:03.330 ,1,0,0.,12.0,0.,12.0,0.,12.0,0.,12.0
1979-07-15 10:10:15.330 ,1,0,0.,12.0,0.,12.0,0.,12.0,0.,12.0
1979-07-15 10:10:27.330 ,0,1,0.,12.0,0.,12.0,0.,12.0,0.,12.0
1979-07-15 10:10:39.330 ,0,1,0.,12.0,0.,12.0,0.,12.0,0.,12.0
1979-07-15 10:10:51.330 ,0,0,0.,12.0,0.,12.0,0.,12.0,0.,12.0
1979-07-15 10:11:03.330 ,0,0,0.,12.0,0.,12.0,0.,12.0,0.,12.0
1979-07-15 10:11:15.330 ,0,1,0.,12.0,0.,12.0,0.,12.0,0.,12.0
1979-07-15 10:11:27.330 ,0,1,0.,12.0,0.,12.0,0.,12.0,0.,12.0
1979-07-15 10:11:39.330 ,0,0,0.,12.0,0.,12.0,0.,12.0,0.,12.0
1979-07-15 10:11:51.330 ,0,0,0.,12.0,0.,12.0,0.,12.0,0.,12.0
1979-07-15 10:12:03.330 ,1,1,0.,12.0,0.,12.0,0.,12.0,0.,12.0
1979-07-15 10:12:15.330 ,1,1,0.,12.0,0.,12.0,0.,12.0,0.,12.0
1979-07-15 10:12:27.330 ,1,0,0.,12.0,0.,12.0,0.,12.0,0.,12.0
1979-07-15 10:12:39.330 ,1,0,0.,12.0,0.,12.0,0.,12.0,0.,12.0
1979-07-15 10:12:51.330 ,2,1,0.,12.0,0.,12.0,0.,12.0,0.,12.0
1979-07-15 10:13:03.330 ,2,1,0.,12.0,0.,12.0,0.,12.0,0.,12.0
1979-07-15 10:13:15.330 ,2,0,0.,12.0,0.,12.0,0.,12.0,0.,12.0
1979-07-15 10:13:27.330 ,2,0,0.,12.0,0.,12.0,0.,12.0,0.,12.0
1979-07-15 10:13:39.330 ,3,1,0.,12.0,0.,12.0,0.,12.0,0.,12.0
1979-07-15 10:13:51.330 ,3,1,0.,12.0,0.,12.0,0.,12.0,0.,12.0
1979-07-15 10:14:03.330 ,3,0,0.,12.0,0.,12.0,0.,12.0,0.,12.0
1979-07-15 10:14:15.330 ,3,0,0.,12.0,0.,12.0,0.,12.0,0.,12.0
1979-07-15 10:14:27.330 ,4,1,0.,12.0,0.,12.0,0.,12.0,0.,12.0
1979-07-15 10:14:39.330 ,4,1,0.,12.0,0.,12.0,0.,12.0,0.,12.0
1979-07-15 10:14:51.330 ,4,0,0.,12.0,0.,12.0,0.,12.0,0.,12.0
1979-07-15 10:15:03.330 ,4,0,0.,12.0,0.,12.0,0.,12.0,0.,12.0
1979-07-15 10:15:15.330 ,5,1,0.,12.0,0.,12.0,0.,12.0,0.,12.0
1979-07-15 10:15:27.330 ,5,1,0.,12.0,0.,12.0,0.,12.0,0.,12.0
1979-07-15 10:15:39.330 ,5,0,0.,12.0,0.,12.0,0.,12.0,0.,12.0
1979-07-15 10:15:51.330 ,5,0,0.,12.0,0.,12.0,0.,12.0,0.,12.0
1979-07-15 10:16:03.330 ,6,1,0.,12.0,0.,12.0,0.,12.0,0.,12.0
1979-07-15 10:16:15.330 ,6,1,0.,12.0,0.,12.0,0.,12.0,0.,12.0
1979-07-15 10:16:27.330 ,6,0,0.,12.0,0.,12.0,0.,12.0,0.,12.0
1979-07-15 10:16:39.330 ,6,0,0.,12.0,0.,12.0,0.,12.0,0.,12.0
1979-07-15 10:16:51.330 ,7,1,0.,12.0,0.,12.0,0.,12.0,0.,12.0
1979-07-15 10:17:03.330 ,7,1,0.,12.0,0.,12.0,0.,12.0,0.,12.0
1979-07-15 10:17:15.330 ,7,0,0.,12.0,0.,12.0,0.,12.0,0.,12.0
1979-07-15 10:17:27.330 ,7,0,0.,12.0,0.,12.0,0.,12.0,0.,12.0